Powrót do katalogu

CZ-6A DEB

AktywnySSO
NORAD 54270·DEBRIS·🇨🇳 China

Wystrzelony Nov 11, 2022 z Taiyuan Satellite Launch Center

Loading…

Następne Przeloty (najbliższe 24 godziny)

TLE

ŚwieżeSource: Space-Track

Epoka: Sep 14, 2026, 22:43 UTC

1 54270U 22151M   26257.94711144  .00000100  00000-0  90038-4 0  9997
2 54270  98.9060 243.4026 0084635 145.4098 215.2615 14.02382399196009

Śledź CZ-6A DEB w czasie rzeczywistym z AllMySat

Download on the App Store